| time (UTC) | temp F | wind direction | speed knots | gust knots | rain 1hr in | rain 24hr in | rain mn in | humidity % | barometer mb |
| 20260509220507 | 50 | 137 | 3.5 | 7.8 | 0.00 | 0.01 | 0.01 | 90 | 1031.4 |
| 20260509220016 | 50 | 165 | 3.5 | 7.8 | 0.00 | 0.01 | 0.01 | 90 | 1031.2 |
| 20260509215008 | 50 | 170 | 4.3 | 8.7 | 0.00 | 0.01 | 0.01 | 90 | 1031.0 |
| 20260509214516 | 50 | 154 | 4.3 | 8.7 | 0.00 | 0.01 | 0.01 | 90 | 1030.9 |
| 20260509214010 | 50 | 131 | 5.2 | 9.6 | 0.00 | 0.01 | 0.01 | 90 | 1031.0 |
| 20260509213507 | 50 | 166 | 5.2 | 9.6 | 0.00 | 0.01 | 0.01 | 90 | 1031.0 |
| 20260509213013 | 50 | 153 | 5.2 | 9.6 | 0.00 | 0.01 | 0.01 | 90 | 1030.9 |
| 20260509212510 | 50 | 163 | 4.3 | 9.6 | 0.00 | 0.01 | 0.01 | 90 | 1030.6 |
| 20260509212007 | 50 | 153 | 7.0 | 9.6 | 0.00 | 0.01 | 0.01 | 90 | 1030.5 |
| 20260509211513 | 50 | 149 | 6.1 | 10.4 | 0.00 | 0.01 | 0.01 | 90 | 1030.5 |
| 20260509211005 | 51 | 162 | 5.2 | 10.4 | 0.00 | 0.01 | 0.01 | 90 | 1030.3 |
| 20260509210511 | 51 | 175 | 5.2 | 10.4 | 0.00 | 0.01 | 0.01 | 90 | 1030.3 |
| 20260509210016 | 51 | 140 | 5.2 | 9.6 | 0.00 | 0.01 | 0.01 | 90 | 1030.3 |
| 20260509205510 | 51 | 172 | 7.0 | 10.4 | 0.00 | 0.01 | 0.01 | 90 | 1030.4 |
| 20260509205007 | 51 | 135 | 5.2 | 10.4 | 0.00 | 0.01 | 0.01 | 90 | 1030.5 |
| 20260509204520 | 51 | 185 | 3.5 | 7.8 | 0.00 | 0.01 | 0.01 | 90 | 1030.3 |
| 20260509204009 | 51 | 185 | 5.2 | 7.8 | 0.00 | 0.01 | 0.01 | 90 | 1030.4 |
| 20260509203514 | 51 | 192 | 6.1 | 7.8 | 0.00 | 0.01 | 0.01 | 90 | 1030.4 |
| 20260509203035 | 51 | 195 | 3.5 | 7.0 | 0.00 | 0.01 | 0.01 | 90 | 1030.3 |
| 20260509202503 | 51 | 193 | 4.3 | 7.8 | 0.00 | 0.01 | 0.01 | 90 | 1030.3 |
| 20260509202004 | 51 | 175 | 4.3 | 7.8 | 0.00 | 0.01 | 0.01 | 90 | 1030.2 |
| 20260509201502 | 51 | 203 | 4.3 | 7.8 | 0.00 | 0.01 | 0.01 | 90 | 1030.3 |
| 20260509201004 | 51 | 189 | 4.3 | 7.8 | 0.00 | 0.01 | 0.01 | 90 | 1030.1 |
| 20260509200508 | 51 | 185 | 4.3 | 8.7 | 0.00 | 0.01 | 0.01 | 90 | 1030.1 |
| 20260509200012 | 51 | 185 | 4.3 | 8.7 | 0.00 | 0.01 | 0.01 | 90 | 1030.0 |
| 20260509195507 | 51 | 180 | 3.5 | 7.0 | 0.00 | 0.01 | 0.01 | 90 | 1030.0 |
| 20260509195004 | 51 | 185 | 3.5 | 7.0 | 0.00 | 0.01 | 0.01 | 90 | 1030.0 |
| 20260509194504 | 51 | 210 | 2.6 | 8.7 | 0.00 | 0.01 | 0.01 | 90 | 1029.9 |
| 20260509194002 | 51 | 185 | 4.3 | 8.7 | 0.00 | 0.01 | 0.01 | 90 | 1029.8 |
| 20260509193502 | 51 | 208 | 5.2 | 9.6 | 0.00 | 0.01 | 0.01 | 90 | 1029.8 |
| 20260509193005 | 51 | 185 | 4.3 | 9.6 | 0.00 | 0.01 | 0.01 | 90 | 1029.6 |
| 20260509192504 | 51 | 172 | 6.1 | 8.7 | 0.00 | 0.01 | 0.01 | 90 | 1029.5 |
| 20260509192006 | 51 | 213 | 5.2 | 9.6 | 0.00 | 0.01 | 0.01 | 90 | 1029.5 |
| 20260509191510 | 51 | 172 | 5.2 | 9.6 | 0.00 | 0.01 | 0.01 | 90 | 1029.4 |
| 20260509191007 | 51 | 175 | 7.0 | 9.6 | 0.00 | 0.01 | 0.01 | 90 | 1029.4 |
| 20260509190504 | 51 | 211 | 4.3 | 9.6 | 0.00 | 0.01 | 0.01 | 90 | 1029.4 |
| 20260509190009 | 51 | 202 | 5.2 | 10.4 | 0.00 | 0.01 | 0.01 | 90 | 1029.3 |
| 20260509185504 | 51 | 199 | 6.1 | 10.4 | 0.00 | 0.01 | 0.01 | 90 | 1029.2 |
| 20260509185005 | 52 | 191 | 7.0 | 10.4 | 0.00 | 0.01 | 0.01 | 90 | 1029.2 |
| 20260509184009 | 52 | 208 | 5.2 | 8.7 | 0.00 | 0.00 | 0.00 | 90 | 1029.2 |
| 20260509183507 | 52 | 185 | 6.1 | 8.7 | 0.00 | 0.00 | 0.00 | 90 | 1029.1 |
| 20260509183006 | 52 | 191 | 3.5 | 7.0 | 0.00 | 0.01 | 0.00 | 90 | 1029.0 |
| 20260509182503 | 52 | 180 | 2.6 | 5.2 | 0.00 | 0.01 | 0.00 | 90 | 1029.0 |
| 20260509182003 | 52 | 175 | 3.5 | 7.0 | 0.00 | 0.01 | 0.00 | 90 | 1029.0 |
| 20260509181507 | 52 | 191 | 3.5 | 7.0 | 0.00 | 0.01 | 0.00 | 90 | 1029.0 |
| 20260509181006 | 52 | 185 | 5.2 | 7.0 | 0.00 | 0.01 | 0.00 | 90 | 1028.9 |
| 20260509180508 | 52 | 175 | 3.5 | 7.0 | 0.00 | 0.01 | 0.00 | 90 | 1028.9 |
| 20260509180009 | 52 | 164 | 3.5 | 7.8 | 0.00 | 0.01 | 0.00 | 90 | 1028.9 |
| 20260509175506 | 52 | 170 | 4.3 | 7.8 | 0.00 | 0.01 | 0.00 | 90 | 1028.9 |
| 20260509175001 | 52 | 156 | 3.5 | 7.8 | 0.00 | 0.01 | 0.00 | 90 | 1028.9 |
| 20260509174535 | 52 | 172 | 5.2 | 9.6 | 0.00 | 0.01 | 0.00 | 90 | 1028.8 |
| 20260509174007 | 52 | 169 | 5.2 | 10.4 | 0.00 | 0.01 | 0.00 | 90 | 1028.9 |
| 20260509173506 | 52 | 152 | 6.1 | 10.4 | 0.00 | 0.01 | 0.00 | 90 | 1028.9 |
| 20260509173012 | 52 | 153 | 7.8 | 10.4 | 0.00 | 0.01 | 0.00 | 90 | 1029.0 |
| 20260509172505 | 52 | 168 | 5.2 | 8.7 | 0.00 | 0.01 | 0.00 | 90 | 1028.9 |
| 20260509172016 | 52 | 191 | 4.3 | 9.6 | 0.00 | 0.01 | 0.00 | 90 | 1029.0 |
| 20260509171004 | 52 | 152 | 5.2 | 8.7 | 0.00 | 0.01 | 0.00 | 90 | 1029.1 |
| 20260509170504 | 52 | 155 | 4.3 | 10.4 | 0.00 | 0.01 | 0.00 | 90 | 1029.1 |
| 20260509170009 | 52 | 160 | 6.1 | 10.4 | 0.00 | 0.01 | 0.00 | 90 | 1029.1 |
| 20260509165505 | 52 | 190 | 6.1 | 10.4 | 0.00 | 0.01 | 0.00 | 90 | 1029.1 |
| 20260509165006 | 52 | 162 | 4.3 | 9.6 | 0.00 | 0.01 | 0.00 | 90 | 1029.1 |
| 20260509164507 | 52 | 172 | 6.1 | 9.6 | 0.00 | 0.01 | 0.00 | 90 | 1029.2 |
| 20260509164006 | 52 | 193 | 6.1 | 9.6 | 0.00 | 0.01 | 0.00 | 90 | 1029.1 |
| 20260509163506 | 52 | 170 | 6.1 | 9.6 | 0.00 | 0.01 | 0.00 | 90 | 1029.2 |
| 20260509163016 | 52 | 194 | 5.2 | 9.6 | 0.00 | 0.01 | 0.00 | 90 | 1029.2 |
| 20260509162511 | 52 | 189 | 6.1 | 8.7 | 0.00 | 0.01 | 0.00 | 90 | 1029.2 |
| 20260509161527 | 52 | 204 | 4.3 | 7.0 | 0.00 | 0.01 | 0.00 | 90 | 1029.1 |
| 20260509161009 | 52 | 189 | 2.6 | 7.0 | 0.00 | 0.01 | 0.00 | 90 | 1029.2 |
| 20260509160504 | 52 | 158 | 3.5 | 7.8 | 0.00 | 0.01 | 0.00 | 90 | 1029.2 |
| 20260509160020 | 52 | 185 | 4.3 | 7.8 | 0.00 | 0.00 | 0.00 | 90 | 1029.2 |
| 20260509155507 | 52 | 169 | 3.5 | 7.8 | 0.00 | 0.00 | 0.00 | 90 | 1029.2 |
| 20260509155009 | 52 | 171 | 3.5 | 7.0 | 0.00 | 0.00 | 0.00 | 90 | 1029.2 |
| 20260509154506 | 52 | 162 | 3.5 | 7.0 | 0.00 | 0.00 | 0.00 | 90 | 1029.2 |
| 20260509154004 | 52 | 189 | 4.3 | 7.8 | 0.00 | 0.00 | 0.00 | 90 | 1029.2 |
| 20260509153505 | 52 | 172 | 4.3 | 7.8 | 0.00 | 0.00 | 0.00 | 90 | 1029.2 |
| 20260509153029 | 52 | 171 | 4.3 | 7.0 | 0.00 | 0.00 | 0.00 | 90 | 1029.2 |
| 20260509152506 | 52 | 155 | 3.5 | 7.0 | 0.00 | 0.00 | 0.00 | 90 | 1029.2 |
| 20260509152008 | 52 | 185 | 2.6 | 7.0 | 0.00 | 0.00 | 0.00 | 90 | 1029.2 |
| 20260509151517 | 52 | 169 | 4.3 | 7.8 | 0.00 | 0.00 | 0.00 | 90 | 1029.3 |
| 20260509151012 | 52 | 154 | 3.5 | 7.8 | 0.00 | 0.00 | 0.00 | 89 | 1029.3 |
| 20260509150511 | 52 | 137 | 3.5 | 8.7 | 0.00 | 0.00 | 0.00 | 89 | 1029.2 |
| 20260509145510 | 52 | 175 | 3.5 | 6.1 | 0.00 | 0.00 | 0.00 | 89 | 1029.3 |
| 20260509144510 | 52 | 153 | 2.6 | 8.7 | 0.00 | 0.00 | 0.00 | 89 | 1029.3 |
| 20260509144012 | 52 | 138 | 4.3 | 8.7 | 0.00 | 0.00 | 0.00 | 89 | 1029.3 |
| 20260509143509 | 52 | 170 | 3.5 | 9.6 | 0.00 | 0.00 | 0.00 | 89 | 1029.3 |
| 20260509143011 | 52 | 160 | 5.2 | 9.6 | 0.00 | 0.00 | 0.00 | 89 | 1029.3 |
| 20260509142505 | 52 | 163 | 5.2 | 7.8 | 0.00 | 0.00 | 0.00 | 89 | 1029.3 |
| 20260509142005 | 52 | 142 | 4.3 | 7.8 | 0.00 | 0.00 | 0.00 | 89 | 1029.3 |
| 20260509141514 | 52 | 156 | 3.5 | 7.8 | 0.00 | 0.00 | 0.00 | 89 | 1029.4 |
| 20260509141007 | 52 | 155 | 4.3 | 8.7 | 0.00 | 0.00 | 0.00 | 89 | 1029.4 |
| 20260509140506 | 52 | 156 | 4.3 | 8.7 | 0.00 | 0.00 | 0.00 | 89 | 1029.4 |
| 20260509140025 | 52 | 171 | 3.5 | 8.7 | 0.00 | 0.00 | 0.00 | 89 | 1029.4 |
| 20260509135508 | 52 | 157 | 5.2 | 8.7 | 0.00 | 0.00 | 0.00 | 89 | 1029.4 |
| 20260509135014 | 52 | 162 | 4.3 | 7.0 | 0.00 | 0.00 | 0.00 | 89 | 1029.4 |
| 20260509134520 | 52 | 158 | 3.5 | 7.0 | 0.00 | 0.00 | 0.00 | 89 | 1029.5 |
| 20260509134009 | 52 | 149 | 3.5 | 7.0 | 0.00 | 0.00 | 0.00 | 89 | 1029.5 |
| 20260509133509 | 52 | 126 | 4.3 | 7.0 | 0.00 | 0.00 | 0.00 | 89 | 1029.4 |
| 20260509133020 | 52 | 166 | 2.6 | 7.0 | 0.00 | 0.00 | 0.00 | 89 | 1029.5 |
| 20260509132508 | 52 | 170 | 3.5 | 7.0 | 0.00 | 0.00 | 0.00 | 89 | 1029.6 |
| 20260509132010 | 52 | 172 | 4.3 | 7.0 | 0.00 | 0.00 | 0.00 | 89 | 1029.6 |
| 20260509131522 | 52 | 156 | 3.5 | 7.0 | 0.00 | 0.00 | 0.00 | 89 | 1029.6 |
| 20260509131007 | 52 | 156 | 2.6 | 7.0 | 0.00 | 0.00 | 0.00 | 89 | 1029.6 |
| 20260509130505 | 52 | 190 | 3.5 | 8.7 | 0.00 | 0.00 | 0.00 | 89 | 1029.5 |
| 20260509130014 | 52 | 162 | 3.5 | 8.7 | 0.00 | 0.00 | 0.00 | 89 | 1029.4 |
| 20260509125511 | 52 | 175 | 4.3 | 7.8 | 0.00 | 0.00 | 0.00 | 89 | 1029.4 |
| 20260509125008 | 52 | 151 | 2.6 | 7.8 | 0.00 | 0.00 | 0.00 | 88 | 1029.5 |
| 20260509124523 | 52 | 158 | 3.5 | 7.8 | 0.00 | 0.00 | 0.00 | 89 | 1029.5 |
| 20260509124009 | 52 | 157 | 4.3 | 7.8 | 0.00 | 0.00 | 0.00 | 88 | 1029.5 |
| 20260509123509 | 52 | 163 | 3.5 | 7.8 | 0.00 | 0.00 | 0.00 | 88 | 1029.6 |
| 20260509123025 | 52 | 157 | 4.3 | 7.8 | 0.00 | 0.00 | 0.00 | 88 | 1029.6 |
| 20260509122510 | 52 | 180 | 3.5 | 7.8 | 0.00 | 0.00 | 0.00 | 89 | 1029.5 |
| 20260509122007 | 52 | 189 | 3.5 | 7.0 | 0.00 | 0.00 | 0.00 | 88 | 1029.4 |
| 20260509121524 | 52 | 153 | 3.5 | 7.8 | 0.00 | 0.00 | 0.00 | 88 | 1029.3 |
| 20260509121012 | 52 | 156 | 3.5 | 7.8 | 0.00 | 0.00 | 0.00 | 88 | 1029.3 |
| 20260509120514 | 52 | 161 | 3.5 | 7.0 | 0.00 | 0.00 | 0.00 | 88 | 1029.3 |
| 20260509120028 | 52 | 166 | 3.5 | 7.8 | 0.00 | 0.00 | 0.00 | 88 | 1029.3 |
| 20260509115507 | 52 | 172 | 2.6 | 7.8 | 0.00 | 0.00 | 0.00 | 88 | 1029.3 |
| 20260509115010 | 52 | 164 | 5.2 | 8.7 | 0.00 | 0.00 | 0.00 | 88 | 1029.3 |
| 20260509114518 | 52 | 175 | 4.3 | 8.7 | 0.00 | 0.00 | 0.00 | 88 | 1029.3 |
| 20260509114009 | 52 | 172 | 4.3 | 8.7 | 0.00 | 0.00 | 0.00 | 88 | 1029.3 |
| 20260509113510 | 52 | 172 | 3.5 | 7.8 | 0.00 | 0.00 | 0.00 | 88 | 1029.4 |
| 20260509113024 | 52 | 162 | 4.3 | 7.8 | 0.00 | 0.00 | 0.00 | 88 | 1029.3 |
| 20260509112503 | 51 | 163 | 3.5 | 7.8 | 0.00 | 0.00 | 0.00 | 87 | 1029.2 |
| 20260509112006 | 52 | 136 | 4.3 | 7.8 | 0.00 | 0.00 | 0.00 | 87 | 1029.2 |
| 20260509111502 | 52 | 146 | 4.3 | 7.8 | 0.00 | 0.00 | 0.00 | 87 | 1029.2 |
| 20260509111002 | 52 | 156 | 3.5 | 7.8 | 0.00 | 0.00 | 0.00 | 87 | 1029.2 |
| 20260509110502 | 52 | 147 | 4.3 | 7.0 | 0.00 | 0.00 | 0.00 | 87 | 1029.2 |
| 20260509110003 | 51 | 143 | 3.5 | 7.0 | 0.00 | 0.00 | 0.00 | 87 | 1029.3 |
| 20260509105501 | 51 | 167 | 3.5 | 7.0 | 0.00 | 0.00 | 0.00 | 87 | 1029.3 |
| 20260509105003 | 51 | 149 | 3.5 | 7.0 | 0.00 | 0.00 | 0.00 | 86 | 1029.3 |
| 20260509104506 | 51 | 170 | 3.5 | 7.0 | 0.00 | 0.00 | 0.00 | 86 | 1029.2 |
| 20260509104002 | 51 | 147 | 3.5 | 7.0 | 0.00 | 0.00 | 0.00 | 86 | 1029.2 |
| 20260509103501 | 51 | 138 | 4.3 | 7.0 | 0.00 | 0.00 | 0.00 | 86 | 1029.2 |
| 20260509103001 | 51 | 131 | 4.3 | 7.0 | 0.00 | 0.00 | 0.00 | 86 | 1029.2 |
| 20260509102501 | 51 | 140 | 4.3 | 7.0 | 0.00 | 0.00 | 0.00 | 86 | 1029.1 |
| 20260509102004 | 51 | 131 | 3.5 | 6.1 | 0.00 | 0.00 | 0.00 | 86 | 1029.1 |
| 20260509101500 | 52 | 135 | 3.5 | 7.8 | 0.00 | 0.00 | 0.00 | 85 | 1029.1 |
| 20260509101003 | 52 | 137 | 3.5 | 7.8 | 0.00 | 0.00 | 0.00 | 85 | 1029.1 |
| 20260509100502 | 52 | 135 | 3.5 | 5.2 | 0.00 | 0.00 | 0.00 | 85 | 1029.0 |
| 20260509095959 | 52 | 133 | 3.5 | 7.0 | 0.00 | 0.00 | 0.00 | 85 | 1029.1 |
| 20260509095459 | 52 | 132 | 3.5 | 7.0 | 0.00 | 0.00 | 0.00 | 85 | 1029.1 |
| 20260509094959 | 52 | 135 | 4.3 | 7.0 | 0.00 | 0.00 | 0.00 | 85 | 1029.0 |
| 20260509094505 | 52 | 133 | 2.6 | 4.3 | 0.00 | 0.00 | 0.00 | 85 | 1029.0 |
| 20260509094003 | 53 | 140 | 2.6 | 5.2 | 0.00 | 0.00 | 0.00 | 85 | 1028.9 |
| 20260509093503 | 53 | 162 | 2.6 | 5.2 | 0.00 | 0.00 | 0.00 | 85 | 1029.0 |
| 20260509093004 | 53 | 159 | 2.6 | 6.1 | 0.00 | 0.00 | 0.00 | 85 | 1028.9 |
| 20260509092502 | 53 | 189 | 2.6 | 6.1 | 0.00 | 0.00 | 0.00 | 84 | 1029.0 |
| 20260509092007 | 53 | 162 | 2.6 | 5.2 | 0.00 | 0.00 | 0.00 | 84 | 1029.1 |
| 20260509091507 | 53 | 161 | 3.5 | 5.2 | 0.00 | 0.00 | 0.00 | 84 | 1029.1 |
| 20260509091003 | 53 | 162 | 2.6 | 5.2 | 0.00 | 0.00 | 0.00 | 84 | 1029.1 |
| 20260509090504 | 53 | 162 | 2.6 | 7.0 | 0.00 | 0.00 | 0.00 | 84 | 1029.0 |
| 20260509090004 | 53 | 170 | 3.5 | 7.0 | 0.00 | 0.00 | 0.00 | 84 | 1028.9 |
| 20260509085004 | 53 | 180 | 3.5 | 8.7 | 0.00 | 0.00 | 0.00 | 84 | 1028.7 |
| 20260509084504 | 53 | 175 | 4.3 | 8.7 | 0.00 | 0.00 | 0.00 | 84 | 1028.7 |
| 20260509084002 | 54 | 175 | 3.5 | 8.7 | 0.00 | 0.00 | 0.00 | 84 | 1028.7 |
| 20260509083458 | 54 | 166 | 3.5 | 8.7 | 0.00 | 0.00 | 0.00 | 84 | 1028.7 |
| 20260509083010 | 53 | 172 | 3.5 | 7.8 | 0.00 | 0.00 | 0.00 | 84 | 1028.7 |
| 20260509082504 | 53 | 166 | 4.3 | 7.8 | 0.00 | 0.00 | 0.00 | 83 | 1028.6 |
| 20260509082003 | 53 | 175 | 5.2 | 8.7 | 0.00 | 0.00 | 0.00 | 83 | 1028.6 |
| 20260509081507 | 53 | 172 | 5.2 | 8.7 | 0.00 | 0.00 | 0.00 | 83 | 1028.5 |
| 20260509081005 | 53 | 185 | 4.3 | 7.0 | 0.00 | 0.00 | 0.00 | 83 | 1028.5 |
| 20260509080503 | 53 | 170 | 2.6 | 7.0 | 0.00 | 0.00 | 0.00 | 83 | 1028.4 |
| 20260509080006 | 53 | 165 | 2.6 | 7.0 | 0.00 | 0.00 | 0.00 | 83 | 1028.3 |
| 20260509075504 | 53 | 160 | 2.6 | 7.0 | 0.00 | 0.00 | 0.00 | 83 | 1028.2 |
| 20260509075006 | 53 | 180 | 3.5 | 8.7 | 0.00 | 0.00 | 0.00 | 83 | 1028.2 |
| 20260509074505 | 53 | 189 | 4.3 | 8.7 | 0.00 | 0.00 | 0.00 | 83 | 1028.1 |
| 20260509074003 | 53 | 195 | 4.3 | 7.0 | 0.00 | 0.00 | 0.00 | 83 | 1028.0 |
| 20260509073005 | 54 | 164 | 4.3 | 7.8 | 0.00 | 0.00 | 0.00 | 83 | 1028.1 |
| 20260509072504 | 54 | 185 | 4.3 | 7.8 | 0.00 | 0.00 | 0.00 | 83 | 1028.1 |
| 20260509072006 | 54 | 152 | 4.3 | 7.8 | 0.00 | 0.00 | 0.00 | 83 | 1028.0 |
| 20260509071505 | 54 | 166 | 4.3 | 7.8 | 0.00 | 0.00 | 0.00 | 83 | 1028.0 |
| 20260509071003 | 54 | 156 | 3.5 | 7.0 | 0.00 | 0.00 | 0.00 | 83 | 1027.9 |
| 20260509070503 | 54 | 175 | 3.5 | 7.0 | 0.00 | 0.00 | 0.00 | 83 | 1027.8 |
| 20260509070005 | 54 | 185 | 3.5 | 8.7 | 0.00 | 0.00 | 0.00 | 83 | 1027.8 |
| 20260509065502 | 54 | 175 | 4.3 | 9.6 | 0.00 | 0.00 | 0.00 | 83 | 1027.7 |
| 20260509065003 | 54 | 175 | 5.2 | 9.6 | 0.00 | 0.00 | 0.00 | 83 | 1027.7 |
| 20260509064503 | 54 | 192 | 4.3 | 8.7 | 0.00 | 0.00 | 0.00 | 82 | 1027.7 |
| 20260509064009 | 54 | 191 | 5.2 | 8.7 | 0.00 | 0.00 | 0.00 | 82 | 1027.7 |
| 20260509063507 | 54 | 193 | 4.3 | 10.4 | 0.00 | 0.00 | 0.00 | 82 | 1027.7 |
| 20260509062503 | 54 | 185 | 6.1 | 9.6 | 0.00 | 0.00 | 0.00 | 82 | 1027.6 |
| 20260509062004 | 55 | 204 | 4.3 | 9.6 | 0.00 | 0.00 | 0.00 | 82 | 1027.6 |
| 20260509061513 | 55 | 151 | 4.3 | 9.6 | 0.00 | 0.00 | 0.00 | 82 | 1027.7 |
| 20260509061004 | 55 | 164 | 6.1 | 9.6 | 0.00 | 0.00 | 0.00 | 82 | 1027.6 |
| 20260509060509 | 55 | 180 | 6.1 | 9.6 | 0.00 | 0.00 | 0.00 | 82 | 1027.6 |
| 20260509055005 | 55 | 168 | 5.2 | 10.4 | 0.00 | 0.00 | 0.00 | 83 | 1027.6 |
| 20260509054003 | 55 | 197 | 5.2 | 9.6 | 0.00 | 0.00 | 0.00 | 83 | 1027.3 |
| 20260509052510 | 55 | 195 | 7.8 | 12.2 | 0.00 | 0.00 | 0.00 | 82 | 1027.4 |
| 20260509051505 | 55 | 200 | 8.7 | 11.3 | 0.00 | 0.00 | 0.00 | 85 | 1027.3 |
| 20260509050506 | 54 | 172 | 7.0 | 11.3 | 0.00 | 0.00 | 0.00 | 85 | 1027.4 |
| 20260509045505 | 54 | 185 | 6.1 | 12.2 | 0.00 | 0.00 | 0.00 | 86 | 1027.6 |
| 20260509045005 | 54 | 206 | 7.8 | 13.0 | 0.00 | 0.00 | 0.00 | 86 | 1027.6 |
| 20260509044004 | 54 | 170 | 7.8 | 10.4 | 0.00 | 0.00 | 0.00 | 87 | 1027.5 |
| 20260509042007 | 54 | 185 | 7.0 | 11.3 | 0.00 | 0.00 | 0.00 | 90 | 1027.7 |
| 20260509041508 | 54 | 185 | 7.0 | 10.4 | 0.00 | 0.00 | 0.00 | 90 | 1027.6 |
| 20260509041004 | 54 | 194 | 6.1 | 9.6 | 0.00 | 0.00 | 0.00 | 90 | 1027.5 |
| 20260509040012 | 53 | 180 | 6.1 | 9.6 | 0.00 | 0.00 | 0.00 | 90 | 1027.6 |
| 20260509035508 | 53 | 155 | 6.1 | 9.6 | 0.00 | 0.00 | 0.00 | 90 | 1027.7 |
| 20260509035008 | 53 | 140 | 5.2 | 9.6 | 0.00 | 0.00 | 0.00 | 90 | 1027.6 |
| 20260509034506 | 53 | 190 | 6.1 | 9.6 | 0.00 | 0.00 | 0.00 | 90 | 1027.6 |
| 20260509034009 | 53 | 169 | 5.2 | 10.4 | 0.00 | 0.00 | 0.00 | 90 | 1027.7 |
| 20260509033509 | 53 | 175 | 7.0 | 9.6 | 0.00 | 0.00 | 0.00 | 90 | 1027.7 |
| 20260509032008 | 53 | 156 | 4.3 | 9.6 | 0.00 | 0.00 | 0.00 | 90 | 1027.8 |
| 20260509031510 | 53 | 180 | 6.1 | 9.6 | 0.00 | 0.00 | 0.00 | 90 | 1027.9 |
| 20260509031004 | 53 | 170 | 5.2 | 9.6 | 0.00 | 0.00 | 0.00 | 90 | 1028.0 |
| 20260509030505 | 53 | 185 | 6.1 | 10.4 | 0.00 | 0.00 | 0.00 | 90 | 1028.0 |
| 20260509030014 | 52 | 193 | 6.1 | 12.2 | 0.00 | 0.00 | 0.00 | 90 | 1028.0 |
| 20260509025510 | 52 | 170 | 7.8 | 12.2 | 0.00 | 0.00 | 0.00 | 90 | 1028.0 |
| 20260509025004 | 53 | 189 | 7.0 | 10.4 | 0.00 | 0.00 | 0.00 | 90 | 1028.1 |
| 20260509024009 | 53 | 191 | 5.2 | 11.3 | 0.00 | 0.00 | 0.00 | 90 | 1028.1 |
| 20260509023508 | 52 | 195 | 7.0 | 11.3 | 0.00 | 0.00 | 0.00 | 91 | 1028.2 |
| 20260509022004 | 52 | 198 | 7.0 | 10.4 | 0.00 | 0.00 | 0.00 | 91 | 1028.4 |
| 20260509021517 | 53 | 180 | 6.1 | 10.4 | 0.00 | 0.00 | 0.00 | 90 | 1028.4 |
| 20260509021004 | 53 | 189 | 6.1 | 10.4 | 0.00 | 0.01 | 0.00 | 90 | 1028.4 |
| 20260509020503 | 52 | 185 | 6.1 | 10.4 | 0.00 | 0.01 | 0.00 | 91 | 1028.4 |
| 20260509020012 | 52 | 205 | 7.0 | 9.6 | 0.00 | 0.01 | 0.00 | 91 | 1028.5 |
| 20260509015504 | 52 | 180 | 5.2 | 10.4 | 0.00 | 0.01 | 0.00 | 91 | 1028.6 |
| 20260509015004 | 52 | 175 | 7.8 | 11.3 | 0.00 | 0.01 | 0.00 | 90 | 1028.6 |
| 20260509014510 | 52 | 193 | 7.8 | 11.3 | 0.00 | 0.01 | 0.00 | 90 | 1028.6 |
| 20260509014004 | 52 | 185 | 7.0 | 10.4 | 0.00 | 0.01 | 0.00 | 91 | 1028.6 |
| 20260509013508 | 52 | 191 | 6.1 | 10.4 | 0.00 | 0.01 | 0.00 | 91 | 1028.6 |
| 20260509013012 | 52 | 163 | 5.2 | 10.4 | 0.00 | 0.01 | 0.00 | 91 | 1028.6 |
| 20260509012504 | 52 | 185 | 7.0 | 10.4 | 0.00 | 0.01 | 0.00 | 90 | 1028.5 |
| 20260509011505 | 52 | 189 | 6.1 | 9.6 | 0.00 | 0.01 | 0.00 | 91 | 1028.5 |
| 20260509011005 | 52 | 170 | 5.2 | 10.4 | 0.00 | 0.01 | 0.00 | 90 | 1028.4 |
| 20260509010504 | 52 | 198 | 6.1 | 10.4 | 0.00 | 0.01 | 0.00 | 91 | 1028.5 |
| 20260509010012 | 52 | 166 | 6.1 | 13.0 | 0.00 | 0.01 | 0.00 | 91 | 1028.4 |
| 20260509005503 | 51 | 195 | 8.7 | 13.0 | 0.00 | 0.01 | 0.00 | 91 | 1028.5 |
| 20260509005006 | 52 | 175 | 8.7 | 13.0 | 0.00 | 0.01 | 0.00 | 91 | 1028.3 |
| 20260509004510 | 51 | 202 | 6.1 | 13.0 | 0.00 | 0.01 | 0.00 | 91 | 1028.3 |
| 20260509003504 | 51 | 204 | 7.8 | 13.0 | 0.00 | 0.01 | 0.00 | 91 | 1028.3 |
| 20260509003021 | 51 | 185 | 8.7 | 13.0 | 0.00 | 0.01 | 0.00 | 90 | 1028.4 |
| 20260509002503 | 51 | 195 | 7.8 | 13.9 | 0.00 | 0.01 | 0.00 | 91 | 1028.4 |
| 20260509002003 | 51 | 189 | 8.7 | 13.9 | 0.00 | 0.01 | 0.00 | 90 | 1028.4 |
| 20260509001518 | 51 | 201 | 8.7 | 13.0 | 0.00 | 0.01 | 0.00 | 91 | 1028.4 |
| 20260509001005 | 51 | 197 | 8.7 | 12.2 | 0.00 | 0.01 | 0.00 | 91 | 1028.4 |
| 20260509000512 | 51 | 185 | 7.8 | 12.2 | 0.00 | 0.01 | 0.00 | 91 | 1028.3 |
| 20260509000004 | 51 | 189 | 7.0 | 13.0 | 0.00 | 0.01 | 0.00 | 91 | 1028.2 |
| 20260508235504 | 51 | 199 | 9.6 | 13.0 | 0.00 | 0.01 | 0.00 | 90 | 1028.2 |
| 20260508235008 | 51 | 185 | 7.8 | 13.9 | 0.00 | 0.01 | 0.00 | 91 | 1028.2 |
| 20260508234508 | 51 | 180 | 9.6 | 13.9 | 0.00 | 0.01 | 0.00 | 90 | 1028.0 |
| 20260508234003 | 50 | 199 | 10.4 | 13.9 | 0.00 | 0.01 | 0.00 | 91 | 1028.0 |
| 20260508233507 | 51 | 175 | 9.6 | 13.9 | 0.00 | 0.01 | 0.00 | 90 | 1027.9 |
| 20260508233007 | 51 | 205 | 7.8 | 13.9 | 0.00 | 0.01 | 0.00 | 90 | 1028.0 |
| 20260508232508 | 50 | 243 | 9.6 | 13.9 | 0.00 | 0.01 | 0.00 | 91 | 1028.0 |
| 20260508232008 | 51 | 213 | 7.0 | 10.4 | 0.00 | 0.01 | 0.00 | 91 | 1028.0 |
| 20260508231516 | 51 | 208 | 6.1 | 12.2 | 0.00 | 0.01 | 0.00 | 91 | 1027.9 |
| 20260508231007 | 50 | 185 | 7.0 | 12.2 | 0.00 | 0.01 | 0.00 | 90 | 1027.9 |
| 20260508230504 | 50 | 196 | 8.7 | 12.2 | 0.00 | 0.01 | 0.00 | 90 | 1027.9 |
| 20260508225507 | 50 | 185 | 7.0 | 12.2 | 0.00 | 0.01 | 0.00 | 90 | 1027.9 |
| 20260508224520 | 50 | 191 | 8.7 | 13.9 | 0.00 | 0.01 | 0.00 | 91 | 1027.8 |
| 20260508223506 | 50 | 214 | 7.0 | 12.2 | 0.00 | 0.01 | 0.00 | 90 | 1027.8 |
| 20260508223023 | 50 | 210 | 5.2 | 13.0 | 0.00 | 0.01 | 0.00 | 90 | 1027.8 |
| 20260508222504 | 50 | 189 | 7.8 | 13.0 | 0.00 | 0.01 | 0.00 | 90 | 1027.7 |
| 20260508222012 | 50 | 215 | 8.7 | 12.2 | 0.00 | 0.01 | 0.00 | 90 | 1027.7 |
| 20260508221525 | 50 | 191 | 5.2 | 9.6 | 0.00 | 0.01 | 0.00 | 90 | 1027.6 |
| 20260508221004 | 50 | 195 | 6.1 | 10.4 | 0.00 | 0.01 | 0.00 | 90 | 1027.6 |